Flight Information

DEPARTURE
EVERETT, WA
Elevation:
606
Runways:
16R/34L - 9010x150 - ASPH-CONC-G
16L/34R - 3004x75 - ASPH-G
Tower:
132.95
DESTINATION
,
Elevation:
TPA:
1000 (est.)


6658.5 NM65° True-20° Var44° HDG

Flight Plan:
(click to file on line)

1. Type
2. Aircraft Identification
3. Aircraft Type / Special Equipment
4. True Airspeed
kts
5. Departure Airport
(ICAO code)
6. Arriving Airport
(ICAO code)
7. Cruising Altitude
ft
8. Alternate Airport
(ICAO code)
9. Route of Flight
10. Remarks


00:00:00 Departure ATIS: Destination ATIS:

Clearance Limit:
Route:
Altitude: Expect in minutes
Frequency:
Transponder: (7500 Hijack / 7600 Lost Comms / 7700 Emergency)


KPAE 032353Z 36009KT 10SM CLR 03/M01 A3012 RMK AO2 SLP206 T00331006 10050 20022 55002
Time: 2022-12-03T23:53:00Z
1670646523
Winds: 360 @ 9 kts
Visibility: 10.0 sm
Clouds (AGL): CLR
Temperature: 3.3 C
Dew Point: -0.6 C
Pressure: 30.121063 in Hgbr


Notes:

Data extracted from FAA Digital Chart Supplement. Effective: 0901Z Thursday, 27 JAN 2022 to 0900z Thursday, 24 MAR 2022
Current ATIS data is provided courtisy of PilotEdge.